Flag for Canada Weather past 2 weeks in Oakville, Ontario, Canada

Now
71 °F

Mild.


Feels Like: 75 °F
Forecast: 64 / 83 °F
Wind: 7 mph from Southwest

Location: Burlington Piers

Current Time: Aug 2, 2015 at 11:26:30 AM

Latest Report: Aug 2, 2015 at 10:00 AM


Visibility: N/A

Pressure: 29.85 "Hg

Humidity: 68%

Dew point: 60 °F

Location of OakvilleLocation

Historic Weather in Oakville — Graph

°F

Oakville temperature yesterday

Maximum temperature yesterday: 79 °F (at 6:00 PM)
Minimum temperature yesterday: 65 °F (at 6:00 AM)
Average temperature yesterday: 71 °F

Past Weeks' High & Low Weather Summary

 TemperatureHumidityPressure
High89 °F (Jul 29, 5:00 PM)95% (Jul 18, 10:00 AM)30.03 "Hg (Jul 18, 10:00 AM)
Low62 °F (Jul 22, 7:00 AM)28% (Jul 24, 2:00 PM)29.62 "Hg (Jul 21, 3:00 AM)
Average75 °F60%29.86 "Hg
* Reported Jul 18 10:00 AM — Aug 2 10:00 AM, Oakville, Weather by CustomWeather, © 2015

Note: Actual official high and low records may vary slightly from our data, if they occured in-between our weather recording intervals... More about our weather records

Advertising

Oakville weather history for previous 24 hours

 ConditionsComfort  
Time TempWeatherWind HumidityBarometerVisibility
10:00 AM
Sun, Aug 2
71 °FMild.7 mph68%29.85 "HgN/A
9:00 AM68 °FMild.8 mph74%29.84 "HgN/A
8:00 AM66 °FMild.7 mph77%29.84 "HgN/A
7:00 AM66 °FMild.8 mph78%29.83 "HgN/A
6:00 AM66 °FMild.5 mph81%29.82 "HgN/A
5:00 AM66 °FMild.5 mph82%29.82 "HgN/A
4:00 AM67 °FMild.3 mph81%29.82 "HgN/A
3:00 AM67 °FMild.3 mph78%29.83 "HgN/A
2:00 AM67 °FMild.5 mph75%29.83 "HgN/A
1:00 AM68 °FMild.5 mph72%29.84 "HgN/A
12:00 AM69 °FMild.3 mph69%29.84 "HgN/A
11:00 PM
Sat, Aug 1
70 °FMild.5 mph67%29.84 "HgN/A
10:00 PM72 °FMild.6 mph63%29.85 "HgN/A
9:00 PM73 °FMild.7 mph60%29.83 "HgN/A
8:00 PM75 °FMild.8 mph54%29.81 "HgN/A
7:00 PM79 °FPleasantly warm.8 mph38%29.80 "HgN/A
6:00 PM79 °FPleasantly warm.12 mph35%29.79 "HgN/A
5:00 PM78 °FPleasantly warm.8 mph40%29.80 "HgN/A
4:00 PM71 °FMild.6 mph56%29.81 "HgN/A
3:00 PM77 °FWarm.8 mph43%29.82 "HgN/A
2:00 PM77 °FMild.6 mph43%29.83 "HgN/A
1:00 PM75 °FMild.8 mph45%29.85 "HgN/A
12:00 PM74 °FMild.8 mph50%29.86 "HgN/A
11:00 AM72 °FMild.7 mph54%29.86 "HgN/A
Weather by CustomWeather, © 2015

See weather overviewHow to use our weather pages